• In Belarus
  • List of Countries
  • For 7 days
  • Water Temperature
  • Satellite Maps
  • Weather Map
  • Weather Widgets
  • user-avatar
    Login

    Hourly Weather Ghazni

    Today, 20 June, Thursday

    Time Temperature Precipitation Wind Pressure Humidity
    00:00 +21°C° 0.3 mm 5 mps 586 mmHg 43%
    01:00 +20°C° 0.3 mm 3 mps 586 mmHg 45%
    02:00 +19°C° 0.3 mm 2 mps 585 mmHg 47%
    03:00 +19°C° 0 mm 2 mps 585 mmHg 49%
    04:00 +19°C° 0 mm 1 mps 585 mmHg 51%
    05:00 +19°C° 0 mm 1 mps 584 mmHg 52%
    06:00 +20°C° 0 mm 1 mps 585 mmHg 47%
    07:00 +19°C° 0 mm 0 mps 586 mmHg 43%
    08:00 +20°C° 0 mm 0 mps 587 mmHg 38%
    09:00 +24°C° 0 mm 1 mps 587 mmHg 33%
    10:00 +25°C° 0 mm 1 mps 587 mmHg 29%
    11:00 +26°C° 0 mm 1 mps 588 mmHg 24%
    12:00 +27°C° 0 mm 2 mps 588 mmHg 22%
    13:00 +28°C° 0 mm 3 mps 588 mmHg 20%
    14:00 +29°C° 0 mm 4 mps 587 mmHg 18%
    15:00 +29°C° 0 mm 4 mps 587 mmHg 16%
    16:00 +30°C° 0 mm 3 mps 587 mmHg 14%
    17:00 +30°C° 0 mm 3 mps 587 mmHg 12%
    18:00 +29°C° 0 mm 3 mps 588 mmHg 13%
    19:00 +29°C° 0 mm 4 mps 588 mmHg 14%
    20:00 +28°C° 0 mm 4 mps 588 mmHg 14%
    21:00 +27°C° 0 mm 4 mps 588 mmHg 20%
    22:00 +25°C° 0 mm 4 mps 587 mmHg 25%
    23:00 +23°C° 0 mm 4 mps 587 mmHg 31%

    Tomorrow, 21 June, Friday

    Time Temperature Precipitation Wind Pressure Humidity
    00:00 +22°C° 0 mm 3 mps 587 mmHg 33%
    01:00 +21°C° 0 mm 2 mps 586 mmHg 34%
    02:00 +21°C° 0 mm 2 mps 586 mmHg 36%
    03:00 +21°C° 0.1 mm 1 mps 586 mmHg 38%
    04:00 +20°C° 0.1 mm 1 mps 586 mmHg 39%
    05:00 +20°C° 0.1 mm 1 mps 585 mmHg 40%
    06:00 +21°C° 0 mm 1 mps 586 mmHg 37%
    07:00 +22°C° 0 mm 1 mps 587 mmHg 34%
    08:00 +23°C° 0 mm 2 mps 588 mmHg 31%
    09:00 +24°C° 0 mm 1 mps 588 mmHg 29%
    10:00 +25°C° 0 mm 1 mps 588 mmHg 28%
    11:00 +27°C° 0 mm 1 mps 588 mmHg 26%
    12:00 +28°C° 0 mm 2 mps 589 mmHg 22%
    13:00 +29°C° 0 mm 3 mps 589 mmHg 19%
    14:00 +30°C° 0 mm 4 mps 589 mmHg 15%
    15:00 +30°C° 0 mm 4 mps 589 mmHg 15%
    16:00 +30°C° 0 mm 4 mps 588 mmHg 14%
    17:00 +31°C° 0 mm 3 mps 588 mmHg 14%
    18:00 +29°C° 0 mm 5 mps 588 mmHg 20%
    19:00 +27°C° 0 mm 7 mps 588 mmHg 26%
    20:00 +26°C° 0 mm 8 mps 587 mmHg 32%
    21:00 +24°C° 0 mm 6 mps 587 mmHg 37%
    22:00 +23°C° 0 mm 4 mps 587 mmHg 42%
    23:00 +23°C° 0 mm 1 mps 588 mmHg 47%

    Day after tomorrow, 22 June, Saturday

    Time Temperature Precipitation Wind Pressure Humidity
    00:00 +23°C° 0 mm 2 mps 587 mmHg 47%
    01:00 +21°C° 0 mm 2 mps 587 mmHg 48%
    02:00 +21°C° 0 mm 2 mps 587 mmHg 48%
    03:00 +20°C° 0 mm 2 mps 586 mmHg 48%
    04:00 +19°C° 0 mm 2 mps 586 mmHg 48%
    05:00 +20°C° 0 mm 1 mps 586 mmHg 48%
    06:00 +21°C° 0 mm 1 mps 587 mmHg 45%
    07:00 +22°C° 0 mm 1 mps 587 mmHg 42%
    08:00 +23°C° 0 mm 1 mps 588 mmHg 38%
    09:00 +25°C° 0 mm 1 mps 588 mmHg 34%
    10:00 +26°C° 0 mm 1 mps 589 mmHg 30%
    11:00 +27°C° 0 mm 1 mps 589 mmHg 26%
    12:00 +28°C° 0 mm 2 mps 589 mmHg 24%
    13:00 +29°C° 0 mm 2 mps 589 mmHg 22%
    14:00 +30°C° 0 mm 2 mps 589 mmHg 19%
    15:00 +30°C° 0 mm 3 mps 588 mmHg 19%
    16:00 +30°C° 0 mm 3 mps 588 mmHg 19%
    17:00 +30°C° 0 mm 3 mps 588 mmHg 19%
    18:00 +30°C° 0 mm 3 mps 588 mmHg 20%
    19:00 +29°C° 0 mm 2 mps 588 mmHg 21%
    20:00 +28°C° 0 mm 2 mps 588 mmHg 22%
    21:00 +27°C° 0 mm 2 mps 588 mmHg 27%
    22:00 +26°C° 0 mm 3 mps 588 mmHg 31%
    23:00 +25°C° 0 mm 3 mps 588 mmHg 35%

    23 June, Sunday

    Time Temperature Precipitation Wind Pressure Humidity
    00:00 +24°C° 0 mm 3 mps 588 mmHg 36%
    01:00 +24°C° 0 mm 3 mps 587 mmHg 37%
    02:00 +22°C° 0 mm 3 mps 587 mmHg 38%
    03:00 +21°C° 0 mm 3 mps 586 mmHg 38%
    04:00 +21°C° 0 mm 2 mps 586 mmHg 38%
    05:00 +20°C° 0 mm 2 mps 586 mmHg 38%
    06:00 +21°C° 0 mm 2 mps 587 mmHg 34%
    07:00 +24°C° 0 mm 3 mps 587 mmHg 30%
    08:00 +25°C° 0 mm 3 mps 588 mmHg 26%
    09:00 +26°C° 0 mm 2 mps 588 mmHg 24%
    10:00 +27°C° 0 mm 2 mps 588 mmHg 23%
    11:00 +28°C° 0 mm 1 mps 589 mmHg 22%
    12:00 +29°C° 0 mm 2 mps 589 mmHg 21%
    13:00 +30°C° 0 mm 3 mps 589 mmHg 19%
    14:00 +32°C° 0 mm 4 mps 589 mmHg 17%
    15:00 +32°C° 0 mm 4 mps 588 mmHg 17%
    16:00 +32°C° 0 mm 4 mps 588 mmHg 17%
    17:00 +32°C° 0 mm 5 mps 588 mmHg 17%
    18:00 +30°C° 0 mm 5 mps 588 mmHg 19%
    19:00 +29°C° 0 mm 5 mps 587 mmHg 22%
    20:00 +28°C° 0 mm 5 mps 587 mmHg 24%
    21:00 +27°C° 0 mm 5 mps 587 mmHg 28%
    22:00 +26°C° 0 mm 5 mps 587 mmHg 32%
    23:00 +23°C° 0 mm 5 mps 587 mmHg 37%

    24 June, Monday

    Time Temperature Precipitation Wind Pressure Humidity
    00:00 +23°C° 0 mm 4 mps 587 mmHg 36%
    01:00 +22°C° 0 mm 4 mps 586 mmHg 35%
    02:00 +21°C° 0 mm 3 mps 586 mmHg 35%
    03:00 +21°C° 0 mm 3 mps 586 mmHg 34%
    04:00 +20°C° 0 mm 3 mps 586 mmHg 33%
    05:00 +20°C° 0 mm 3 mps 586 mmHg 32%
    06:00 +21°C° 0 mm 3 mps 586 mmHg 29%
    07:00 +22°C° 0 mm 3 mps 587 mmHg 26%
    08:00 +24°C° 0 mm 3 mps 588 mmHg 23%
    09:00 +25°C° 0 mm 3 mps 588 mmHg 23%
    10:00 +26°C° 0 mm 2 mps 588 mmHg 23%
    11:00 +27°C° 0 mm 2 mps 588 mmHg 23%
    12:00 +28°C° 0 mm 2 mps 588 mmHg 21%
    13:00 +29°C° 0 mm 3 mps 588 mmHg 19%
    14:00 +30°C° 0 mm 3 mps 588 mmHg 16%
    15:00 +31°C° 0 mm 3 mps 589 mmHg 16%
    16:00 +32°C° 0 mm 4 mps 589 mmHg 17%
    17:00 +32°C° 0 mm 4 mps 589 mmHg 17%
    18:00 +29°C° 0 mm 4 mps 588 mmHg 22%
    19:00 +28°C° 0 mm 4 mps 588 mmHg 27%
    20:00 +26°C° 0 mm 4 mps 588 mmHg 32%
    21:00 +25°C° 0.8 mm 4 mps 588 mmHg 41%
    22:00 +22°C° 0.8 mm 4 mps 587 mmHg 49%
    23:00 +20°C° 0.8 mm 4 mps 587 mmHg 57%

    25 June, Tuesday

    Time Temperature Precipitation Wind Pressure Humidity
    00:00 +20°C° 0 mm 3 mps 587 mmHg 55%
    01:00 +20°C° 0 mm 2 mps 587 mmHg 53%
    02:00 +21°C° 0 mm 1 mps 586 mmHg 51%
    03:00 +21°C° 0 mm 1 mps 586 mmHg 52%
    04:00 +21°C° 0 mm 1 mps 586 mmHg 52%
    05:00 +20°C° 0 mm 1 mps 586 mmHg 53%
    06:00 +19°C° 0 mm 0 mps 586 mmHg 49%
    07:00 +20°C° 0 mm 0 mps 587 mmHg 45%
    08:00 +21°C° 0 mm 0 mps 587 mmHg 41%
    09:00 +25°C° 0 mm 1 mps 588 mmHg 36%
    10:00 +26°C° 0 mm 1 mps 588 mmHg 32%
    11:00 +28°C° 0 mm 2 mps 588 mmHg 27%
    12:00 +29°C° 0 mm 3 mps 588 mmHg 23%
    13:00 +30°C° 0 mm 4 mps 588 mmHg 18%
    14:00 +32°C° 0 mm 5 mps 589 mmHg 14%
    15:00 +33°C° 0 mm 5 mps 588 mmHg 14%
    16:00 +33°C° 0 mm 6 mps 588 mmHg 13%
    17:00 +33°C° 0 mm 6 mps 588 mmHg 13%
    18:00 +32°C° 0 mm 5 mps 588 mmHg 14%
    19:00 +30°C° 0 mm 4 mps 588 mmHg 15%
    20:00 +29°C° 0 mm 3 mps 588 mmHg 16%
    21:00 +28°C° 0 mm 3 mps 587 mmHg 22%
    22:00 +26°C° 0 mm 4 mps 587 mmHg 28%
    23:00 +25°C° 0 mm 5 mps 587 mmHg 34%
    Show more